Regional Weather Roundup
Issued by NWS Midland/Odessa, TX

Skip options and go directly to product.
Home | Oldest Version | Previous Version | Current Version | All | Text Only | Save Text | Print | Product List | Glossary On

Skip product version selection by date and time.   
432
ASUS44 KMAF 181110
RWRMAF
MIDLAND AREA WEATHER ROUNDUP
NATIONAL WEATHER SERVICE MIDLAND TX
600 AM CDT SAT APR 18 2015

...IN SOUTHWEST TEXAS AND SOUTHEAST NEW MEXICO...

CITY           SKY/WX    TMP DP  RH WIND       PRES   REMARKS
ALPINE         PTCLDY    48  40  74 SW5       30.07S
ANDREWS        FAIR      51  36  55 CALM      29.94R
ARTESIA        CLEAR     43  27  52 W10       29.99S WCI  37
BIG SPRING     MOCLDY    59  56  91 SE6       29.95F
CARLSBAD       PTCLDY    45  26  47 W8        29.97S
DRYDEN           N/A     64  61  90 E8        29.91S
FORT STOCKTON  PTCLDY    58  29  33 S3        29.94F
GUAD PASS      CLEAR     49   8  19 SW8       30.03S
HOBBS          CLEAR     45  32  61 N10       29.97F WCI  39
MARFA          CLOUDY    45  36  70 NE5       30.04S
MIDLAND AIRPK  PTCLDY    56  56 100 SE6       29.93F
MIDLAND INTL   PTCLDY    54  52  93 SE8       29.93F
ODESSA         MOCLDY    52  43  71 S6        29.94F
PECOS          PTCLDY    48  29  49 SE5       29.93F
PRESIDIO       FAIR      60  41  48 CALM      29.95R
SEMINOLE       PTCLDY    43  34  70 NW8       29.96S WCI  38
SNYDER         PTCLDY   N/A N/A N/A S6        29.93F
WINK           CLOUDY    56  22  26 S7        29.93R
$$
...OTHER STATIONS IN TEXAS...

CITY           SKY/WX    TMP DP  RH WIND       PRES   REMARKS
ABILENE        CLOUDY    61  58  90 S8        29.94R
AMARILLO       FOG       45  45 100 SW6       29.94F VSB<1/4
AUSTIN         CLOUDY    65  65 100 NE5       29.84F
BROWNSVILLE    CLOUDY    75  73  93 NE9       29.82S FOG
CORPUS CHRISTI CLOUDY    70  67  90 N7        29.80R
DALLAS FTW     MOCLDY    61  60  97 NW6       29.88S
DEL RIO        MOCLDY    64  63  96 CALM      29.89R
EL PASO        PTCLDY    51  13  21 S8        29.99F
HOUSTON INT    CLOUDY    68  67  96 N5        29.82S
LUBBOCK        FOG       51  51 100 SW3       29.93S VSB 1/16
SAN ANGELO     CLOUDY    58  56  93 W7        29.94F
SAN ANTONIO    CLOUDY    68  65  90 CALM      29.86R
WACO           CLOUDY    64  63  96 N5        29.87S
WICHITA FALLS  NOT AVBL
$$
...OTHER LOCATIONS IN NEW MEXICO...

CITY           SKY/WX    TMP DP  RH WIND       PRES   REMARKS
ALAMAGORDO     PTCLDY    39  19  45 SE6       29.98F WCI  35
ALBUQUERQUE    MOCLDY    37  25  61 SE6       29.99F WCI  32
CANNON AFB     NOT AVBL
CLOVIS         CLEAR     34  21  60 NE6       29.97S WCI  29
HOLLOMAN AFB   PTCLDY    38  18  44 NE6       29.97F WCI  33
ROSWELL        CLEAR     41  29  62 W5        29.98F WCI  38
RUIDOSO        CLEAR     34  14  44 SE7       30.04S WCI  28
SANTA FE       LGT SNOW  32  30  92 N3        29.98S VSB 1
TRUTH OR CONSE CLEAR     43  18  36 W3        30.00S
TUCUMCARI      CLEAR     37  18  46 SW9       29.94F WCI  30
$$

USA.gov is the U.S. government's official web portal to all federal, state and local government web resources and services.